| time (UTC) | temp C | wind direction | speed KPH | gust KPH | rain 1hr cm | rain 24hr cm | rain mn cm | humidity % | barometer mb |
| 20260906090629 | 28 | 104 | 4.8 | 6.4 | 0.00 | 0.00 | 0.00 | 47 | 1015.4 |
| 20260906090129 | 28 | 104 | 4.8 | 6.4 | 0.00 | 0.00 | 0.00 | 49 | 1015.4 |
| 20260906085140 | 28 | 104 | 3.2 | 4.8 | 0.00 | 0.00 | 0.00 | 49 | 1015.5 |
| 20260906084627 | 28 | 104 | 3.2 | 6.4 | 0.00 | 0.00 | 0.00 | 50 | 1015.5 |
| 20260906084131 | 27 | 104 | 4.8 | 6.4 | 0.00 | 0.00 | 0.00 | 50 | 1015.6 |
| 20260906083631 | 27 | 104 | 4.8 | 6.4 | 0.00 | 0.00 | 0.00 | 50 | 1015.5 |
| 20260906083121 | 27 | 104 | 4.8 | 6.4 | 0.00 | 0.00 | 0.00 | 50 | 1015.5 |
| 20260906082621 | 27 | 104 | 4.8 | 6.4 | 0.00 | 0.00 | 0.00 | 49 | 1015.5 |
| 20260906082121 | 28 | 107 | 4.8 | 6.4 | 0.00 | 0.00 | 0.00 | 49 | 1015.5 |
| 20260906081631 | 28 | 109 | 4.8 | 6.4 | 0.00 | 0.00 | 0.00 | 50 | 1015.5 |
| 20260906080625 | 27 | 109 | 4.8 | 6.4 | 0.00 | 0.00 | 0.00 | 49 | 1015.4 |
| 20260906075622 | 27 | 111 | 4.8 | 6.4 | 0.00 | 0.00 | 0.00 | 48 | 1015.4 |
| 20260906075117 | 27 | 111 | 4.8 | 6.4 | 0.00 | 0.00 | 0.00 | 48 | 1015.4 |
| 20260906074617 | 27 | 112 | 4.8 | 6.4 | 0.00 | 0.00 | 0.00 | 47 | 1015.3 |
| 20260906074115 | 27 | 112 | 4.8 | 6.4 | 0.00 | 0.00 | 0.00 | 47 | 1015.2 |
| 20260906073616 | 27 | 113 | 3.2 | 4.8 | 0.00 | 0.00 | 0.00 | 47 | 1015.2 |
| 20260906073116 | 27 | 113 | 4.8 | 9.7 | 0.00 | 0.00 | 0.00 | 46 | 1015.2 |
| 20260906072627 | 27 | 113 | 4.8 | 9.7 | 0.00 | 0.00 | 0.00 | 47 | 1015.2 |
| 20260906072115 | 27 | 119 | 4.8 | 8.0 | 0.00 | 0.00 | 0.00 | 47 | 1015.2 |
| 20260906071617 | 28 | 142 | 6.4 | 8.0 | 0.00 | 0.00 | 0.00 | 47 | 1015.1 |
| 20260906071118 | 28 | 164 | 4.8 | 8.0 | 0.00 | 0.00 | 0.00 | 46 | 1015.0 |
| 20260906070610 | 28 | 164 | 4.8 | 8.0 | 0.00 | 0.00 | 0.00 | 46 | 1015.0 |
| 20260906070111 | 28 | 186 | 3.2 | 4.8 | 0.00 | 0.00 | 0.00 | 45 | 1014.9 |
| 20260906065615 | 28 | 186 | 3.2 | 6.4 | 0.00 | 0.00 | 0.00 | 45 | 1014.9 |
| 20260906065120 | 28 | 190 | 3.2 | 6.4 | 0.00 | 0.00 | 0.00 | 45 | 1015.4 |
| 20260906064617 | 28 | 190 | 4.8 | 6.4 | 0.00 | 0.00 | 0.00 | 44 | 1014.9 |
| 20260906064109 | 28 | 190 | 4.8 | 6.4 | 0.00 | 0.00 | 0.00 | 44 | 1014.8 |
| 20260906063619 | 28 | 190 | 3.2 | 4.8 | 0.00 | 0.00 | 0.00 | 43 | 1014.9 |
| 20260906063108 | 28 | 190 | 3.2 | 4.8 | 0.00 | 0.00 | 0.00 | 42 | 1014.8 |
| 20260906062608 | 28 | 190 | 3.2 | 4.8 | 0.00 | 0.00 | 0.00 | 41 | 1014.7 |
| 20260906062109 | 28 | 190 | 3.2 | 4.8 | 0.00 | 0.00 | 0.00 | 40 | 1014.6 |
| 20260906061610 | 28 | 190 | 3.2 | 4.8 | 0.00 | 0.00 | 0.00 | 39 | 1014.6 |
| 20260906061109 | 28 | 190 | 3.2 | 4.8 | 0.00 | 0.00 | 0.00 | 38 | 1014.7 |
| 20260906060121 | 29 | 190 | 1.6 | 3.2 | 0.00 | 0.00 | 0.00 | 38 | 1014.5 |
| 20260906055611 | 28 | 190 | 0.0 | 1.6 | 0.00 | 0.00 | 0.00 | 37 | 1014.5 |
| 20260906055119 | 28 | 190 | 0.0 | 1.6 | 0.00 | 0.00 | 0.00 | 39 | 1014.5 |
| 20260906054614 | 27 | 190 | 1.6 | 3.2 | 0.00 | 0.00 | 0.00 | 39 | 1014.5 |
| 20260906054107 | 27 | 190 | 1.6 | 4.8 | 0.00 | 0.00 | 0.00 | 40 | 1014.5 |
| 20260906053600 | 26 | 190 | 1.6 | 4.8 | 0.00 | 0.00 | 0.00 | 40 | 1014.5 |
| 20260906052558 | 26 | 190 | 1.6 | 3.2 | 0.00 | 0.00 | 0.00 | 42 | 1014.5 |
| 20260906052112 | 25 | 190 | 1.6 | 3.2 | 0.00 | 0.00 | 0.00 | 42 | 1014.5 |
| 20260906051057 | 24 | 190 | 3.2 | 4.8 | 0.00 | 0.00 | 0.00 | 43 | 1014.5 |
| 20260906050609 | 24 | 190 | 1.6 | 4.8 | 0.00 | 0.00 | 0.00 | 44 | 1014.4 |
| 20260906050105 | 23 | 190 | 1.6 | 4.8 | 0.00 | 0.00 | 0.00 | 44 | 1014.4 |
| 20260906045557 | 23 | 190 | 3.2 | 3.2 | 0.00 | 0.00 | 0.00 | 44 | 1014.4 |
| 20260906045100 | 23 | 190 | 3.2 | 1.6 | 0.00 | 0.00 | 0.00 | 44 | 1014.3 |
| 20260906043619 | 23 | 190 | 1.6 | 4.8 | 0.00 | 0.00 | 0.00 | 44 | 1014.3 |
| 20260906043120 | 22 | 190 | 1.6 | 4.8 | 0.00 | 0.00 | 0.00 | 44 | 1014.2 |
| 20260906042621 | 22 | 190 | 1.6 | 3.2 | 0.00 | 0.00 | 0.00 | 45 | 1014.1 |
| 20260906042130 | 22 | 190 | 1.6 | 3.2 | 0.00 | 0.00 | 0.00 | 45 | 1014.1 |
| 20260906041620 | 22 | 190 | 3.2 | 4.8 | 0.00 | 0.00 | 0.00 | 45 | 1014.2 |
| 20260906040621 | 22 | 190 | 3.2 | 4.8 | 0.00 | 0.00 | 0.00 | 45 | 1014.0 |
| 20260906040114 | 22 | 190 | 3.2 | 6.4 | 0.00 | 0.00 | 0.00 | 45 | 1014.0 |
| 20260906035614 | 22 | 190 | 3.2 | 6.4 | 0.00 | 0.00 | 0.00 | 45 | 1013.9 |
| 20260906035126 | 22 | 190 | 3.2 | 6.4 | 0.00 | 0.00 | 0.00 | 45 | 1013.8 |
| 20260906034615 | 22 | 190 | 3.2 | 6.4 | 0.00 | 0.00 | 0.00 | 45 | 1013.7 |
| 20260906034110 | 22 | 190 | 1.6 | 4.8 | 0.00 | 0.00 | 0.00 | 45 | 1013.8 |
| 20260906033620 | 22 | 190 | 1.6 | 4.8 | 0.00 | 0.00 | 0.00 | 45 | 1013.7 |
| 20260906033120 | 22 | 190 | 3.2 | 4.8 | 0.00 | 0.00 | 0.00 | 45 | 1013.8 |
| 20260906032617 | 22 | 190 | 3.2 | 4.8 | 0.00 | 0.00 | 0.00 | 45 | 1013.7 |
| 20260906032116 | 22 | 190 | 3.2 | 4.8 | 0.00 | 0.00 | 0.00 | 45 | 1013.6 |
| 20260906031615 | 22 | 190 | 1.6 | 4.8 | 0.00 | 0.00 | 0.00 | 45 | 1013.6 |
| 20260906031119 | 22 | 190 | 1.6 | 3.2 | 0.00 | 0.00 | 0.00 | 44 | 1013.6 |
| 20260906030609 | 22 | 190 | 1.6 | 4.8 | 0.00 | 0.00 | 0.00 | 44 | 1013.6 |
| 20260906030110 | 22 | 190 | 1.6 | 4.8 | 0.00 | 0.00 | 0.00 | 44 | 1013.6 |
| 20260906025614 | 22 | 190 | 1.6 | 3.2 | 0.00 | 0.00 | 0.00 | 44 | 1013.6 |
| 20260906025114 | 22 | 190 | 1.6 | 4.8 | 0.00 | 0.00 | 0.00 | 44 | 1013.5 |
| 20260906024609 | 22 | 190 | 1.6 | 4.8 | 0.00 | 0.00 | 0.00 | 44 | 1013.4 |
| 20260906024113 | 22 | 190 | 1.6 | 4.8 | 0.00 | 0.00 | 0.00 | 44 | 1013.3 |
| 20260906023613 | 22 | 190 | 1.6 | 6.4 | 0.00 | 0.00 | 0.00 | 44 | 1013.3 |
| 20260906023109 | 22 | 190 | 1.6 | 6.4 | 0.00 | 0.00 | 0.00 | 45 | 1013.3 |
| 20260906022611 | 22 | 190 | 1.6 | 4.8 | 0.00 | 0.00 | 0.00 | 45 | 1013.3 |
| 20260906022113 | 22 | 190 | 3.2 | 4.8 | 0.00 | 0.00 | 0.00 | 45 | 1013.2 |
| 20260906021618 | 22 | 190 | 3.2 | 4.8 | 0.00 | 0.00 | 0.00 | 45 | 1013.3 |
| 20260906021116 | 22 | 190 | 1.6 | 4.8 | 0.00 | 0.00 | 0.00 | 45 | 1013.4 |
| 20260906020116 | 22 | 190 | 3.2 | 4.8 | 0.00 | 0.00 | 0.00 | 44 | 1013.3 |
| 20260906015107 | 22 | 190 | 1.6 | 4.8 | 0.00 | 0.00 | 0.00 | 45 | 1013.3 |
| 20260906014611 | 22 | 190 | 1.6 | 4.8 | 0.00 | 0.00 | 0.00 | 45 | 1013.4 |
| 20260906014118 | 22 | 190 | 1.6 | 6.4 | 0.00 | 0.00 | 0.00 | 45 | 1013.4 |
| 20260906013613 | 22 | 190 | 3.2 | 6.4 | 0.00 | 0.00 | 0.00 | 45 | 1013.3 |
| 20260906013103 | 22 | 190 | 3.2 | 4.8 | 0.00 | 0.00 | 0.00 | 45 | 1013.3 |
| 20260906012604 | 23 | 190 | 1.6 | 4.8 | 0.00 | 0.00 | 0.00 | 45 | 1013.4 |
| 20260906012118 | 23 | 190 | 1.6 | 3.2 | 0.00 | 0.00 | 0.00 | 45 | 1013.5 |
| 20260906011104 | 23 | 190 | 1.6 | 4.8 | 0.00 | 0.00 | 0.00 | 44 | 1013.5 |
| 20260906010604 | 23 | 190 | 1.6 | 4.8 | 0.00 | 0.00 | 0.00 | 44 | 1013.6 |
| 20260906010116 | 23 | 190 | 1.6 | 4.8 | 0.00 | 0.00 | 0.00 | 44 | 1013.5 |
| 20260906005105 | 23 | 190 | 1.6 | 4.8 | 0.00 | 0.00 | 0.00 | 43 | 1013.6 |
| 20260906004604 | 23 | 190 | 1.6 | 4.8 | 0.00 | 0.00 | 0.00 | 43 | 1013.6 |
| 20260906004104 | 23 | 190 | 1.6 | 4.8 | 0.00 | 0.00 | 0.00 | 42 | 1013.7 |
| 20260906003614 | 23 | 190 | 3.2 | 4.8 | 0.00 | 0.00 | 0.00 | 41 | 1013.6 |
| 20260906003109 | 23 | 190 | 3.2 | 4.8 | 0.00 | 0.00 | 0.00 | 41 | 1013.5 |
| 20260906002604 | 23 | 190 | 1.6 | 4.8 | 0.00 | 0.00 | 0.00 | 41 | 1013.6 |
| 20260906002116 | 23 | 190 | 0.0 | 4.8 | 0.00 | 0.00 | 0.00 | 41 | 1013.5 |
| 20260906001608 | 23 | 190 | 0.0 | 0.0 | 0.00 | 0.00 | 0.00 | 41 | 1013.6 |
| 20260906001108 | 23 | 190 | 0.0 | 1.6 | 0.00 | 0.00 | 0.00 | 41 | 1013.6 |
| 20260906000613 | 23 | 190 | 1.6 | 4.8 | 0.00 | 0.00 | 0.00 | 41 | 1013.6 |
| 20260906000107 | 23 | 190 | 3.2 | 4.8 | 0.00 | 0.00 | 0.00 | 41 | 1013.6 |
| 20260905235102 | 23 | 190 | 3.2 | 4.8 | 0.00 | 0.00 | 0.00 | 39 | 1013.8 |
| 20260905234602 | 23 | 190 | 3.2 | 4.8 | 0.00 | 0.00 | 0.00 | 39 | 1013.8 |
| 20260905234102 | 23 | 190 | 1.6 | 3.2 | 0.00 | 0.00 | 0.00 | 39 | 1013.8 |
| 20260905233621 | 23 | 190 | 1.6 | 3.2 | 0.00 | 0.00 | 0.00 | 38 | 1013.8 |
| 20260905233114 | 23 | 190 | 1.6 | 3.2 | 0.00 | 0.00 | 0.00 | 38 | 1013.9 |
| 20260905232602 | 23 | 190 | 1.6 | 3.2 | 0.00 | 0.00 | 0.00 | 38 | 1013.9 |
| 20260905232112 | 23 | 190 | 1.6 | 3.2 | 0.00 | 0.00 | 0.00 | 37 | 1013.9 |
| 20260905231601 | 23 | 190 | 1.6 | 3.2 | 0.00 | 0.00 | 0.00 | 37 | 1014.0 |
| 20260905231058 | 23 | 190 | 1.6 | 3.2 | 0.00 | 0.00 | 0.00 | 37 | 1014.0 |
| 20260905230605 | 23 | 190 | 1.6 | 3.2 | 0.00 | 0.00 | 0.00 | 36 | 1014.1 |
| 20260905230110 | 23 | 190 | 1.6 | 3.2 | 0.00 | 0.00 | 0.00 | 36 | 1014.2 |
| 20260905225558 | 23 | 190 | 1.6 | 4.8 | 0.00 | 0.00 | 0.00 | 36 | 1014.0 |
| 20260905224610 | 23 | 190 | 1.6 | 4.8 | 0.00 | 0.00 | 0.00 | 36 | 1014.0 |
| 20260905224057 | 23 | 190 | 1.6 | 4.8 | 0.00 | 0.00 | 0.00 | 37 | 1014.1 |
| 20260905223610 | 23 | 190 | 1.6 | 4.8 | 0.00 | 0.00 | 0.00 | 37 | 1014.1 |
| 20260905223051 | 23 | 190 | 1.6 | 3.2 | 0.00 | 0.00 | 0.00 | 37 | 1014.2 |
| 20260905222549 | 23 | 190 | 1.6 | 3.2 | 0.00 | 0.00 | 0.00 | 37 | 1014.2 |
| 20260905222053 | 23 | 190 | 1.6 | 4.8 | 0.00 | 0.00 | 0.00 | 37 | 1014.2 |
| 20260905221555 | 23 | 190 | 1.6 | 4.8 | 0.00 | 0.00 | 0.00 | 37 | 1014.2 |
| 20260905221049 | 23 | 190 | 1.6 | 4.8 | 0.00 | 0.00 | 0.00 | 37 | 1014.2 |
| 20260905220550 | 23 | 190 | 1.6 | 4.8 | 0.00 | 0.00 | 0.00 | 37 | 1014.2 |
| 20260905215048 | 24 | 190 | 1.6 | 4.8 | 0.00 | 0.00 | 0.00 | 36 | 1014.2 |
| 20260905214054 | 24 | 190 | 1.6 | 4.8 | 0.00 | 0.00 | 0.00 | 36 | 1014.2 |
| 20260905213551 | 25 | 190 | 1.6 | 4.8 | 0.00 | 0.00 | 0.00 | 35 | 1014.3 |
| 20260905212544 | 25 | 190 | 1.6 | 4.8 | 0.00 | 0.00 | 0.00 | 35 | 1014.3 |
| 20260905212045 | 25 | 190 | 1.6 | 4.8 | 0.00 | 0.00 | 0.00 | 35 | 1014.3 |
| 20260905211045 | 25 | 190 | 1.6 | 3.2 | 0.00 | 0.00 | 0.00 | 35 | 1014.3 |
| 20260905210538 | 25 | 190 | 1.6 | 4.8 | 0.00 | 0.00 | 0.00 | 35 | 1014.4 |
| 20260905210041 | 25 | 190 | 1.6 | 4.8 | 0.00 | 0.00 | 0.00 | 35 | 1014.3 |
| 20260905205540 | 25 | 190 | 1.6 | 4.8 | 0.00 | 0.00 | 0.00 | 35 | 1014.3 |
| 20260905205034 | 25 | 190 | 1.6 | 4.8 | 0.00 | 0.00 | 0.00 | 35 | 1014.3 |
| 20260905204534 | 25 | 190 | 3.2 | 4.8 | 0.00 | 0.00 | 0.00 | 35 | 1014.4 |
| 20260905204032 | 25 | 190 | 3.2 | 4.8 | 0.00 | 0.00 | 0.00 | 35 | 1014.4 |
| 20260905203530 | 25 | 190 | 1.6 | 3.2 | 0.00 | 0.00 | 0.00 | 34 | 1014.4 |
| 20260905203030 | 25 | 190 | 1.6 | 3.2 | 0.00 | 0.00 | 0.00 | 34 | 1014.3 |
| 20260905202530 | 25 | 190 | 0.0 | 1.6 | 0.00 | 0.00 | 0.00 | 34 | 1014.4 |
| 20260905202045 | 25 | 190 | 0.0 | 1.6 | 0.00 | 0.00 | 0.00 | 34 | 1014.4 |
| 20260905201530 | 25 | 190 | 1.6 | 3.2 | 0.00 | 0.00 | 0.00 | 34 | 1014.5 |
| 20260905201034 | 25 | 190 | 1.6 | 4.8 | 0.00 | 0.00 | 0.00 | 34 | 1014.4 |
| 20260905200527 | 25 | 190 | 3.2 | 4.8 | 0.00 | 0.00 | 0.00 | 33 | 1014.4 |
| 20260905200038 | 25 | 190 | 3.2 | 4.8 | 0.00 | 0.00 | 0.00 | 33 | 1014.4 |
| 20260905195529 | 25 | 190 | 1.6 | 4.8 | 0.00 | 0.00 | 0.00 | 33 | 1014.3 |
| 20260905194028 | 26 | 190 | 1.6 | 4.8 | 0.00 | 0.00 | 0.00 | 32 | 1014.4 |
| 20260905193527 | 26 | 190 | 3.2 | 4.8 | 0.00 | 0.00 | 0.00 | 32 | 1014.4 |
| 20260905193029 | 26 | 190 | 3.2 | 6.4 | 0.00 | 0.00 | 0.00 | 32 | 1014.5 |
| 20260905192533 | 26 | 190 | 3.2 | 6.4 | 0.00 | 0.00 | 0.00 | 32 | 1014.4 |
| 20260905191536 | 26 | 190 | 3.2 | 8.0 | 0.00 | 0.00 | 0.00 | 31 | 1014.4 |
| 20260905190535 | 27 | 189 | 3.2 | 6.4 | 0.00 | 0.00 | 0.00 | 31 | 1014.5 |
| 20260905190033 | 27 | 189 | 3.2 | 8.0 | 0.00 | 0.00 | 0.00 | 31 | 1014.5 |
| 20260905185531 | 27 | 189 | 3.2 | 8.0 | 0.00 | 0.00 | 0.00 | 31 | 1014.4 |
| 20260905185015 | 27 | 188 | 3.2 | 6.4 | 0.00 | 0.00 | 0.00 | 31 | 1014.4 |
| 20260905184513 | 27 | 188 | 3.2 | 6.4 | 0.00 | 0.00 | 0.00 | 31 | 1014.3 |
| 20260905184011 | 27 | 188 | 4.8 | 6.4 | 0.00 | 0.00 | 0.00 | 31 | 1014.2 |
| 20260905183011 | 27 | 188 | 3.2 | 8.0 | 0.00 | 0.00 | 0.00 | 30 | 1014.1 |
| 20260905182518 | 27 | 187 | 4.8 | 6.4 | 0.00 | 0.00 | 0.00 | 30 | 1013.9 |
| 20260905182006 | 27 | 187 | 4.8 | 6.4 | 0.00 | 0.00 | 0.00 | 30 | 1013.9 |
| 20260905181509 | 27 | 186 | 3.2 | 6.4 | 0.00 | 0.00 | 0.00 | 30 | 1013.9 |
| 20260905181002 | 27 | 186 | 3.2 | 6.4 | 0.00 | 0.00 | 0.00 | 30 | 1013.9 |
| 20260905180459 | 27 | 186 | 4.8 | 6.4 | 0.00 | 0.00 | 0.00 | 30 | 1013.8 |
| 20260905180001 | 28 | 186 | 4.8 | 8.0 | 0.00 | 0.00 | 0.00 | 30 | 1013.8 |
| 20260905174456 | 28 | 184 | 3.2 | 6.4 | 0.00 | 0.00 | 0.00 | 30 | 1013.6 |
| 20260905173949 | 28 | 184 | 3.2 | 6.4 | 0.00 | 0.00 | 0.00 | 29 | 1013.5 |
| 20260905173444 | 28 | 184 | 4.8 | 6.4 | 0.00 | 0.00 | 0.00 | 29 | 1013.5 |
| 20260905172849 | 28 | 183 | 4.8 | 8.0 | 0.00 | 0.00 | 0.00 | 29 | 1013.5 |
| 20260905172348 | 28 | 180 | 4.8 | 8.0 | 0.00 | 0.00 | 0.00 | 29 | 1013.5 |
| 20260905171834 | 28 | 179 | 4.8 | 8.0 | 0.00 | 0.00 | 0.00 | 29 | 1013.4 |
| 20260905170840 | 29 | 173 | 4.8 | 9.7 | 0.00 | 0.00 | 0.00 | 28 | 1013.4 |
| 20260905170335 | 29 | 168 | 4.8 | 9.7 | 0.00 | 0.00 | 0.00 | 28 | 1013.4 |
| 20260905165830 | 30 | 159 | 4.8 | 8.0 | 0.00 | 0.00 | 0.00 | 28 | 1013.4 |
| 20260905165325 | 30 | 154 | 4.8 | 8.0 | 0.00 | 0.00 | 0.00 | 27 | 1013.4 |
| 20260905164326 | 30 | 123 | 1.6 | 4.8 | 0.00 | 0.00 | 0.00 | 27 | 1013.4 |
| 20260905163823 | 31 | 123 | 1.6 | 4.8 | 0.00 | 0.00 | 0.00 | 26 | 1013.4 |
| 20260905163336 | 31 | 123 | 1.6 | 3.2 | 0.00 | 0.00 | 0.00 | 26 | 1013.3 |
| 20260905162824 | 31 | 123 | 1.6 | 3.2 | 0.00 | 0.00 | 0.00 | 26 | 1013.2 |
| 20260905162317 | 31 | 123 | 1.6 | 4.8 | 0.00 | 0.00 | 0.00 | 26 | 1013.3 |
| 20260905161815 | 31 | 123 | 3.2 | 9.7 | 0.00 | 0.00 | 0.00 | 26 | 1013.4 |
| 20260905161314 | 31 | 123 | 3.2 | 9.7 | 0.00 | 0.00 | 0.00 | 27 | 1013.4 |
| 20260905160809 | 31 | 121 | 1.6 | 9.7 | 0.00 | 0.00 | 0.00 | 28 | 1013.5 |
| 20260905155319 | 30 | 120 | 4.8 | 9.7 | 0.00 | 0.00 | 0.00 | 33 | 1013.4 |
| 20260905154811 | 30 | 119 | 4.8 | 9.7 | 0.00 | 0.00 | 0.00 | 37 | 1013.4 |
| 20260905154314 | 30 | 116 | 4.8 | 9.7 | 0.00 | 0.00 | 0.00 | 39 | 1013.4 |
| 20260905153809 | 30 | 115 | 3.2 | 9.7 | 0.00 | 0.00 | 0.00 | 41 | 1013.4 |
| 20260905153312 | 30 | 115 | 3.2 | 6.4 | 0.00 | 0.00 | 0.00 | 39 | 1013.4 |
| 20260905152306 | 31 | 117 | 6.4 | 11.3 | 0.00 | 0.00 | 0.00 | 37 | 1013.4 |
| 20260905151806 | 31 | 115 | 8.0 | 11.3 | 0.00 | 0.00 | 0.00 | 35 | 1013.4 |
| 20260905150306 | 31 | 113 | 8.0 | 11.3 | 0.00 | 0.00 | 0.00 | 31 | 1013.4 |
| 20260905145810 | 31 | 117 | 8.0 | 11.3 | 0.00 | 0.00 | 0.00 | 36 | 1013.4 |
| 20260905145309 | 31 | 117 | 8.0 | 12.9 | 0.00 | 0.00 | 0.00 | 32 | 1013.3 |
| 20260905144302 | 31 | 114 | 11.3 | 14.5 | 0.00 | 0.00 | 0.00 | 33 | 1013.4 |
| 20260905143801 | 31 | 111 | 9.7 | 14.5 | 0.00 | 0.00 | 0.00 | 35 | 1013.4 |
| 20260905143300 | 31 | 117 | 8.0 | 12.9 | 0.00 | 0.00 | 0.00 | 34 | 1013.3 |
| 20260905142759 | 31 | 114 | 8.0 | 12.9 | 0.00 | 0.00 | 0.00 | 32 | 1013.4 |
| 20260905141807 | 31 | 117 | 6.4 | 11.3 | 0.00 | 0.00 | 0.00 | 35 | 1013.3 |
| 20260905141254 | 31 | 116 | 8.0 | 14.5 | 0.00 | 0.00 | 0.00 | 35 | 1013.4 |
| 20260905140755 | 31 | 114 | 9.7 | 14.5 | 0.00 | 0.00 | 0.00 | 29 | 1013.3 |
| 20260905140255 | 31 | 115 | 8.0 | 14.5 | 0.00 | 0.00 | 0.00 | 35 | 1013.3 |
| 20260905135257 | 31 | 121 | 6.4 | 12.9 | 0.00 | 0.00 | 0.00 | 36 | 1013.4 |
| 20260905134754 | 31 | 117 | 6.4 | 12.9 | 0.00 | 0.00 | 0.00 | 36 | 1013.4 |
| 20260905133801 | 31 | 117 | 8.0 | 12.9 | 0.00 | 0.00 | 0.00 | 29 | 1013.4 |
| 20260905133301 | 31 | 117 | 8.0 | 12.9 | 0.00 | 0.00 | 0.00 | 28 | 1013.5 |
| 20260905132751 | 31 | 111 | 8.0 | 14.5 | 0.00 | 0.00 | 0.00 | 29 | 1013.6 |
| 20260905132255 | 31 | 113 | 9.7 | 14.5 | 0.00 | 0.00 | 0.00 | 33 | 1013.6 |
| 20260905131254 | 31 | 117 | 9.7 | 14.5 | 0.00 | 0.00 | 0.00 | 34 | 1013.7 |
| 20260905130803 | 31 | 117 | 6.4 | 14.5 | 0.00 | 0.00 | 0.00 | 37 | 1013.7 |
| 20260905125259 | 31 | 103 | 4.8 | 9.7 | 0.00 | 0.00 | 0.00 | 38 | 1013.8 |
| 20260905124749 | 31 | 102 | 4.8 | 9.7 | 0.00 | 0.00 | 0.00 | 37 | 1013.9 |
| 20260905124248 | 31 | 101 | 4.8 | 9.7 | 0.00 | 0.00 | 0.00 | 37 | 1014.0 |
| 20260905123258 | 31 | 101 | 6.4 | 11.3 | 0.00 | 0.00 | 0.00 | 39 | 1014.1 |
| 20260905121746 | 31 | 115 | 4.8 | 11.3 | 0.00 | 0.00 | 0.00 | 37 | 1014.3 |
| 20260905121252 | 31 | 114 | 4.8 | 11.3 | 0.00 | 0.00 | 0.00 | 37 | 1014.4 |
| 20260905120258 | 31 | 102 | 4.8 | 11.3 | 0.00 | 0.00 | 0.00 | 37 | 1014.4 |
| 20260905115749 | 31 | 114 | 6.4 | 11.3 | 0.00 | 0.00 | 0.00 | 36 | 1014.5 |
| 20260905114255 | 31 | 119 | 6.4 | 12.9 | 0.00 | 0.00 | 0.00 | 34 | 1014.6 |
| 20260905113744 | 30 | 111 | 6.4 | 12.9 | 0.00 | 0.00 | 0.00 | 38 | 1014.6 |
| 20260905113245 | 30 | 94 | 6.4 | 11.3 | 0.00 | 0.00 | 0.00 | 41 | 1014.5 |
| 20260905112745 | 30 | 64 | 4.8 | 6.4 | 0.00 | 0.00 | 0.00 | 42 | 1014.6 |
| 20260905112257 | 30 | 64 | 4.8 | 6.4 | 0.00 | 0.00 | 0.00 | 41 | 1014.6 |
| 20260905111747 | 30 | 64 | 4.8 | 6.4 | 0.00 | 0.00 | 0.00 | 44 | 1014.6 |
| 20260905110747 | 30 | 64 | 3.2 | 6.4 | 0.00 | 0.00 | 0.00 | 41 | 1014.5 |
| 20260905110240 | 30 | 64 | 1.6 | 4.8 | 0.00 | 0.00 | 0.00 | 40 | 1014.6 |
| 20260905105753 | 30 | 64 | 3.2 | 8.0 | 0.00 | 0.00 | 0.00 | 40 | 1014.7 |
| 20260905105243 | 30 | 64 | 6.4 | 9.7 | 0.00 | 0.00 | 0.00 | 39 | 1014.8 |
| 20260905104240 | 30 | 49 | 4.8 | 8.0 | 0.00 | 0.00 | 0.00 | 37 | 1014.7 |
| 20260905103236 | 29 | 28 | 4.8 | 6.4 | 0.00 | 0.00 | 0.00 | 35 | 1014.7 |
| 20260905102234 | 29 | 28 | 4.8 | 8.0 | 0.00 | 0.00 | 0.00 | 37 | 1014.9 |
| 20260905100745 | 30 | 355 | 4.8 | 8.0 | 0.00 | 0.00 | 0.00 | 37 | 1015.0 |
| 20260905095752 | 30 | 340 | 6.4 | 8.0 | 0.00 | 0.00 | 0.00 | 35 | 1014.9 |
| 20260905094739 | 30 | 340 | 6.4 | 9.7 | 0.00 | 0.00 | 0.00 | 39 | 1015.0 |
| 20260905094231 | 30 | 340 | 4.8 | 6.4 | 0.00 | 0.00 | 0.00 | 40 | 1015.1 |
| 20260905093733 | 30 | 340 | 4.8 | 4.8 | 0.00 | 0.00 | 0.00 | 39 | 1015.0 |
| 20260905093237 | 30 | 340 | 4.8 | 4.8 | 0.00 | 0.00 | 0.00 | 40 | 1015.1 |
| 20260905092735 | 30 | 340 | 4.8 | 4.8 | 0.00 | 0.00 | 0.00 | 42 | 1015.1 |
| 20260905092224 | 30 | 340 | 4.8 | 6.4 | 0.00 | 0.00 | 0.00 | 42 | 1015.1 |
| 20260905091740 | 30 | 340 | 4.8 | 6.4 | 0.00 | 0.00 | 0.00 | 40 | 1015.1 |
| 20260905091226 | 30 | 340 | 3.2 | 6.4 | 0.00 | 0.00 | 0.00 | 40 | 1015.2 |